Year,Month,Day,Hour,Minute,Value (Times are PST for temperature in C)
2022,05,03,09,30,10.10
2022,05,03,09,31,10.10
2022,05,03,09,32,10.10
2022,05,03,09,33,10.10
2022,05,03,09,34,10.10
2022,05,03,09,35,10.10
2022,05,03,09,36,10.20
2022,05,03,09,37,10.20
2022,05,03,09,38,10.20
2022,05,03,09,39,10.20
2022,05,03,09,40,10.20
2022,05,03,09,41,10.20
2022,05,03,09,42,10.20
2022,05,03,09,43,10.20
2022,05,03,09,44,10.30
2022,05,03,09,45,10.30
2022,05,03,09,46,10.30
2022,05,03,09,47,10.30
2022,05,03,09,48,10.30
2022,05,03,09,49,10.20
2022,05,03,09,50,10.20
2022,05,03,09,51,10.20
2022,05,03,09,52,10.20
2022,05,03,09,53,10.20
2022,05,03,09,54,10.30
2022,05,03,09,55,10.30
2022,05,03,09,56,10.30
2022,05,03,09,57,10.30
2022,05,03,09,58,10.40
2022,05,03,09,59,10.40
2022,05,03,10,00,10.40
2022,05,03,10,01,10.40
2022,05,03,10,02,10.40
2022,05,03,10,03,10.40
2022,05,03,10,04,10.40
2022,05,03,10,05,10.40
2022,05,03,10,06,10.60
2022,05,03,10,07,10.60
2022,05,03,10,08,10.60
2022,05,03,10,09,10.60
2022,05,03,10,10,10.60
2022,05,03,10,11,10.60
2022,05,03,10,12,10.60
2022,05,03,10,13,10.60
2022,05,03,10,14,10.70
2022,05,03,10,15,10.70
2022,05,03,10,16,10.80
2022,05,03,10,17,10.80
2022,05,03,10,18,10.90
2022,05,03,10,19,10.90
2022,05,03,10,20,10.90
2022,05,03,10,21,10.90
2022,05,03,10,22,10.90
2022,05,03,10,23,10.90
2022,05,03,10,24,10.90
2022,05,03,10,25,10.90
2022,05,03,10,26,10.90
2022,05,03,10,27,10.90
2022,05,03,10,28,10.90
2022,05,03,10,29,11.00
2022,05,03,10,30,11.10
2022,05,03,10,31,11.10
2022,05,03,10,32,11.10
2022,05,03,10,33,11.10
2022,05,03,10,34,11.10
2022,05,03,10,35,11.10
2022,05,03,10,36,11.10
2022,05,03,10,37,11.10
2022,05,03,10,38,11.10
2022,05,03,10,39,11.10
2022,05,03,10,40,11.10
2022,05,03,10,41,11.10
2022,05,03,10,42,11.10
2022,05,03,10,43,11.00
2022,05,03,10,44,10.90
2022,05,03,10,45,11.00
2022,05,03,10,46,10.90
2022,05,03,10,47,11.00
2022,05,03,10,48,11.10
2022,05,03,10,49,11.10
2022,05,03,10,50,11.20
2022,05,03,10,51,11.20
2022,05,03,10,52,11.20
2022,05,03,10,53,11.20
2022,05,03,10,54,11.20
2022,05,03,10,55,11.40
2022,05,03,10,56,11.40
2022,05,03,10,57,11.50
2022,05,03,10,58,11.60
2022,05,03,10,59,11.60
2022,05,03,11,00,11.60
2022,05,03,11,01,11.60
2022,05,03,11,02,11.60
2022,05,03,11,03,11.60
2022,05,03,11,04,11.60
2022,05,03,11,05,11.60
2022,05,03,11,06,11.60
2022,05,03,11,07,11.60
2022,05,03,11,08,11.60
2022,05,03,11,09,11.40
2022,05,03,11,10,11.40
2022,05,03,11,11,11.40
2022,05,03,11,12,11.40
2022,05,03,11,13,11.40
2022,05,03,11,14,11.40
2022,05,03,11,15,11.40
2022,05,03,11,16,11.30
2022,05,03,11,17,11.30
2022,05,03,11,18,11.30
2022,05,03,11,19,11.30
2022,05,03,11,20,11.30
2022,05,03,11,21,11.30
2022,05,03,11,22,11.30
2022,05,03,11,23,11.30
2022,05,03,11,24,11.30
2022,05,03,11,25,11.30
2022,05,03,11,26,11.40
2022,05,03,11,27,11.40
2022,05,03,11,28,11.40
2022,05,03,11,29,11.40
2022,05,03,11,30,11.40
2022,05,03,11,31,11.40
2022,05,03,11,32,11.40
2022,05,03,11,33,11.40
2022,05,03,11,34,11.40
2022,05,03,11,35,11.40
2022,05,03,11,36,11.50
2022,05,03,11,37,11.60
2022,05,03,11,38,11.60
2022,05,03,11,39,11.60
2022,05,03,11,40,11.60
2022,05,03,11,41,11.60
2022,05,03,11,42,11.60
2022,05,03,11,43,11.60
2022,05,03,11,44,11.60
2022,05,03,11,45,11.60
2022,05,03,11,46,11.60
2022,05,03,11,47,11.50
2022,05,03,11,48,11.50
2022,05,03,11,49,11.40
2022,05,03,11,50,11.50
2022,05,03,11,51,11.60
2022,05,03,11,52,11.60
2022,05,03,11,53,11.60
2022,05,03,11,54,11.60
2022,05,03,11,55,11.60
2022,05,03,11,56,11.60
2022,05,03,11,57,11.60
2022,05,03,11,58,11.60
2022,05,03,11,59,11.60
2022,05,03,12,00,11.60
2022,05,03,12,01,11.60
2022,05,03,12,02,11.60
2022,05,03,12,03,11.60
2022,05,03,12,04,11.60
2022,05,03,12,05,11.60
2022,05,03,12,06,11.60
2022,05,03,12,07,11.60
2022,05,03,12,08,11.70
2022,05,03,12,09,11.70
2022,05,03,12,10,11.80
2022,05,03,12,11,11.80
2022,05,03,12,12,11.80
2022,05,03,12,13,11.70
2022,05,03,12,14,11.70
2022,05,03,12,15,11.70
2022,05,03,12,16,11.70
2022,05,03,12,17,11.60
2022,05,03,12,18,11.60
2022,05,03,12,19,11.60
2022,05,03,12,20,11.60
2022,05,03,12,21,11.60
2022,05,03,12,22,11.60
2022,05,03,12,23,11.60
2022,05,03,12,24,11.60
2022,05,03,12,25,11.70
2022,05,03,12,26,11.70
2022,05,03,12,27,11.70
2022,05,03,12,28,11.70
2022,05,03,12,29,11.70
2022,05,03,12,30,11.70
2022,05,03,12,31,11.80
2022,05,03,12,32,11.80
2022,05,03,12,33,11.80
2022,05,03,12,34,11.90
2022,05,03,12,35,11.90
2022,05,03,12,36,11.90
2022,05,03,12,37,11.90
2022,05,03,12,38,11.90
2022,05,03,12,39,11.90
2022,05,03,12,40,12.00
2022,05,03,12,41,12.00
2022,05,03,12,42,12.10
2022,05,03,12,43,12.10
2022,05,03,12,44,12.10
2022,05,03,12,45,12.10
2022,05,03,12,46,12.20
2022,05,03,12,47,12.20
2022,05,03,12,48,12.20
2022,05,03,12,49,12.20
2022,05,03,12,50,12.20
2022,05,03,12,51,12.10
2022,05,03,12,52,12.10
2022,05,03,12,53,12.00
2022,05,03,12,54,12.00
2022,05,03,12,55,12.00
2022,05,03,12,56,11.90
2022,05,03,12,57,11.90
2022,05,03,12,58,11.90
2022,05,03,12,59,11.90
2022,05,03,13,00,11.90
2022,05,03,13,01,11.90
2022,05,03,13,02,11.90
2022,05,03,13,03,11.90
2022,05,03,13,04,11.90
2022,05,03,13,05,11.90
2022,05,03,13,06,11.90
2022,05,03,13,07,11.80
2022,05,03,13,08,11.80
2022,05,03,13,09,11.80
2022,05,03,13,10,11.80
2022,05,03,13,11,11.90
2022,05,03,13,12,11.90
2022,05,03,13,13,11.90
2022,05,03,13,14,11.90
2022,05,03,13,15,11.90
2022,05,03,13,16,11.80
2022,05,03,13,17,11.80
2022,05,03,13,18,11.80
2022,05,03,13,19,11.80
2022,05,03,13,20,11.80
2022,05,03,13,21,11.80
2022,05,03,13,22,11.80
2022,05,03,13,23,11.80
2022,05,03,13,24,11.80
2022,05,03,13,25,11.80
2022,05,03,13,26,11.80
2022,05,03,13,27,11.80
2022,05,03,13,28,11.80
2022,05,03,13,29,11.80
2022,05,03,13,30,11.80
2022,05,03,13,31,11.80
2022,05,03,13,32,11.80
2022,05,03,13,33,11.80
2022,05,03,13,34,11.80
2022,05,03,13,35,11.80
2022,05,03,13,36,11.80
2022,05,03,13,37,11.80
2022,05,03,13,38,11.80
2022,05,03,13,39,11.80
2022,05,03,13,40,11.80
2022,05,03,13,41,11.80
2022,05,03,13,42,11.80
2022,05,03,13,43,11.80
2022,05,03,13,44,11.80
2022,05,03,13,45,11.80
2022,05,03,13,46,11.80
2022,05,03,13,47,11.80
2022,05,03,13,48,11.90
2022,05,03,13,49,11.90
2022,05,03,13,50,11.90
2022,05,03,13,51,12.00
2022,05,03,13,52,12.00
2022,05,03,13,53,12.10
2022,05,03,13,54,12.10
2022,05,03,13,55,12.20
2022,05,03,13,56,12.20
2022,05,03,13,57,12.20
2022,05,03,13,58,12.10
2022,05,03,13,59,12.10
2022,05,03,14,00,12.10
2022,05,03,14,01,12.10
2022,05,03,14,02,12.10
2022,05,03,14,03,12.10
2022,05,03,14,04,12.10
2022,05,03,14,05,12.10
2022,05,03,14,06,12.00
2022,05,03,14,07,12.00
2022,05,03,14,08,12.00
2022,05,03,14,09,12.00
2022,05,03,14,10,12.00
2022,05,03,14,11,12.00
2022,05,03,14,12,12.00
2022,05,03,14,13,12.00
2022,05,03,14,14,12.00
2022,05,03,14,15,12.00
2022,05,03,14,16,12.00
2022,05,03,14,17,12.00
2022,05,03,14,18,11.90
2022,05,03,14,19,12.00
2022,05,03,14,20,12.00
2022,05,03,14,21,11.90
2022,05,03,14,22,11.90
2022,05,03,14,23,11.90
2022,05,03,14,24,11.90
2022,05,03,14,25,11.80
2022,05,03,14,26,11.80
2022,05,03,14,27,11.80
2022,05,03,14,28,11.80
2022,05,03,14,29,11.80
2022,05,03,14,30,11.80
2022,05,03,14,31,11.80
2022,05,03,14,32,11.80
2022,05,03,14,33,11.90
2022,05,03,14,34,11.90
2022,05,03,14,35,11.90
2022,05,03,14,36,11.90
2022,05,03,14,37,11.90
2022,05,03,14,38,11.90
2022,05,03,14,39,12.00
2022,05,03,14,40,12.00
2022,05,03,14,41,12.00
2022,05,03,14,42,12.00
2022,05,03,14,43,12.00
2022,05,03,14,44,12.00
2022,05,03,14,45,12.00
2022,05,03,14,46,12.00
2022,05,03,14,47,12.00
2022,05,03,14,48,11.90
2022,05,03,14,49,11.90
2022,05,03,14,50,11.90
2022,05,03,14,51,11.90
2022,05,03,14,52,11.90
2022,05,03,14,53,11.90
2022,05,03,14,54,11.90
2022,05,03,14,55,11.90
2022,05,03,14,56,11.90
2022,05,03,14,57,11.90
2022,05,03,14,58,12.00
2022,05,03,14,59,12.00
2022,05,03,15,00,12.00
2022,05,03,15,01,12.00
2022,05,03,15,02,11.90
2022,05,03,15,03,11.90
2022,05,03,15,04,11.90
2022,05,03,15,05,11.90
2022,05,03,15,06,11.80
2022,05,03,15,07,11.80
2022,05,03,15,08,11.80
2022,05,03,15,09,11.80
2022,05,03,15,10,11.80
2022,05,03,15,11,11.80
2022,05,03,15,12,11.80
2022,05,03,15,13,11.80
2022,05,03,15,14,11.70
2022,05,03,15,15,11.70
2022,05,03,15,16,11.60
2022,05,03,15,17,11.60
2022,05,03,15,18,11.50
2022,05,03,15,19,11.40
2022,05,03,15,20,11.40
2022,05,03,15,21,11.30
2022,05,03,15,22,11.30
2022,05,03,15,23,11.20
2022,05,03,15,24,11.20
2022,05,03,15,25,11.10
2022,05,03,15,26,11.10
2022,05,03,15,27,11.10
2022,05,03,15,28,11.10
2022,05,03,15,29,11.10
2022,05,03,15,30,11.10
2022,05,03,15,31,11.10
2022,05,03,15,32,10.90
2022,05,03,15,33,10.90
2022,05,03,15,34,10.90
2022,05,03,15,35,10.90
2022,05,03,15,36,10.90
2022,05,03,15,37,10.90
2022,05,03,15,38,10.90
2022,05,03,15,39,10.90
2022,05,03,15,40,10.80
2022,05,03,15,41,10.80
2022,05,03,15,42,10.80
2022,05,03,15,43,10.80
2022,05,03,15,44,10.70
2022,05,03,15,45,10.70
2022,05,03,15,46,10.70
2022,05,03,15,47,10.60
2022,05,03,15,48,10.60
2022,05,03,15,49,10.60
2022,05,03,15,50,10.60
2022,05,03,15,51,10.60
2022,05,03,15,52,10.60
2022,05,03,15,53,10.60
2022,05,03,15,54,10.60
2022,05,03,15,55,10.60
2022,05,03,15,56,10.70
2022,05,03,15,57,10.70
2022,05,03,15,58,10.70
2022,05,03,15,59,10.70
2022,05,03,16,00,10.70
2022,05,03,16,01,10.70
2022,05,03,16,02,10.80
2022,05,03,16,03,10.80
2022,05,03,16,04,10.80
2022,05,03,16,05,10.70
2022,05,03,16,06,10.70
2022,05,03,16,07,10.70
2022,05,03,16,08,10.60
2022,05,03,16,09,10.60
2022,05,03,16,10,10.60
2022,05,03,16,11,10.60
2022,05,03,16,12,10.60
2022,05,03,16,13,10.50
2022,05,03,16,14,10.40
2022,05,03,16,15,10.40
2022,05,03,16,16,10.40
2022,05,03,16,17,10.40
2022,05,03,16,18,10.40
2022,05,03,16,19,10.40
2022,05,03,16,20,10.30
2022,05,03,16,21,10.30
2022,05,03,16,22,10.30
2022,05,03,16,23,10.30
2022,05,03,16,24,10.30
2022,05,03,16,25,10.30
2022,05,03,16,26,10.30
2022,05,03,16,27,10.30
2022,05,03,16,28,10.30
2022,05,03,16,29,10.30
2022,05,03,16,30,10.30
2022,05,03,16,31,10.30
2022,05,03,16,32,10.30
2022,05,03,16,33,10.40
2022,05,03,16,34,10.40
2022,05,03,16,35,10.40
2022,05,03,16,36,10.40
2022,05,03,16,37,10.40
2022,05,03,16,38,10.40
2022,05,03,16,39,10.40
2022,05,03,16,40,10.40
2022,05,03,16,41,10.40
2022,05,03,16,42,10.40
2022,05,03,16,43,10.40
2022,05,03,16,44,10.40
2022,05,03,16,45,10.40
2022,05,03,16,46,10.40
2022,05,03,16,47,10.40
2022,05,03,16,48,10.40
2022,05,03,16,49,10.40
2022,05,03,16,50,10.40
2022,05,03,16,51,10.40
2022,05,03,16,52,10.40
2022,05,03,16,53,10.40
2022,05,03,16,54,10.40
2022,05,03,16,55,10.40
2022,05,03,16,56,10.40
2022,05,03,16,57,10.40
2022,05,03,16,58,10.40
2022,05,03,16,59,10.40
2022,05,03,17,00,10.40
2022,05,03,17,01,10.40
2022,05,03,17,02,10.40
